Terug naar catalogus

ALSAT 1B

ActiefWetenschapSSO
NORAD 41785·PAYLOAD·🇩🇿 Algeria

Gelanceerd Sep 26, 2016 vanaf Satish Dhawan Space Centre

Loading…

Volgende Passages (komende 24 uur)

TLE

VersSource: Space-Track

Epoch: Sep 14, 2026, 14:38 UTC

1 41785U 16059C   26257.61013744  .00000307  00000-0  56073-4 0  9999
2 41785  97.7783 262.5317 0008177 305.8440  54.2008 14.72331996533736

Volg ALSAT 1B in realtime met AllMySat

Download on the App Store